Location: Cartignies
(50.0929°N, 3.8447°E)
Time: 13:36:59
(UTC+00:00)

COSMO-SKYMED 1 - Pass Details

Date: 12 January 2026
Orbit: 577 x 579 km, 97.9° (Epoch: 16 February)

Event Time Altitude Azimuth Distance (km) Brightness Sun altitude
Exits shadow 18:45:46 40° 343° (NNW) 860 3.3 -24.7°
Maximum altitude 18:46:56 57° 288° (WNW) 689 3.0 -24.9°
Drops below altitude 10° 18:50:57 10° 210° (SSW) 1,890 5.4 -25.5°
Sets 18:53:06 0° 207° (SSW) 2,783 6.3 -25.9°
